O3B FM5 1 39188U 13031A 25133.09706840 -.00000018 00000-0 00000+0 0 9994 2 39188 0.0422 343.2737 0002842 73.3391 303.4171 5.00115392217128 O3B FM2 1 39190U 13031C 25137.44190486 -.00000014 00000-0 00000-0 0 9990 2 39190 0.0570 18.6078 0002759 39.6863 301.7351 5.00115802217310 O3B PFM 1 39191U 13031D 25136.86777779 -.00000015 00000-0 00000-0 0 9993 2 39191 0.0455 354.3150 0002701 59.7381 305.9744 5.00115251216846 O3B FM3 1 40079U 14038A 25137.12259867 -.00000014 00000-0 00000-0 0 9990 2 40079 0.0498 5.4714 0004224 18.6155 335.9352 5.00115378193230 O3B FM7 1 40080U 14038B 25137.06871762 -.00000014 00000-0 00000-0 0 9999 2 40080 0.0481 12.8276 0003002 80.6361 266.5730 5.00115454198060 O3B FM6 1 40081U 14038C 25133.29787565 -.00000017 00000-0 00000-0 0 9991 2 40081 0.0500 8.0357 0002803 44.5993 307.3933 5.00115663197822 O3B FM8 1 40082U 14038D 25137.14923287 -.00000014 00000-0 00000-0 0 9990 2 40082 0.0496 8.9309 0002627 45.1513 305.9445 5.00115734198138 O3B FM10 1 40348U 14083A 25135.37680024 -.00000016 00000-0 00000-0 0 9999 2 40348 0.0529 12.2017 0001773 98.7480 249.0719 5.00114925189999 O3B FM11 1 40349U 14083B 25137.18887741 -.00000014 00000-0 00000-0 0 9994 2 40349 0.0455 358.2644 0003037 72.5265 289.2443 5.00115623190104 O3B FM12 1 40350U 14083C 25137.21611613 -.00000014 00000-0 00000-0 0 9993 2 40350 0.0460 359.2935 0002907 57.6340 303.1028 5.00115829190113 O3B FM9 1 40351U 14083D 25137.04298791 -.00000014 00000-0 00000-0 0 9993 2 40351 0.0442 358.3263 0002694 52.8619 308.8382 5.00115638190255